Regional Weather Roundup
Issued by NWS Goodland, KS

Home | Current Version | Previous Version | Graphics & Text | Print | Product List | Glossary On
Versions: 1 2 3 4 5 6 7 8 9 10 11 12 13 14 15 16 17 18 19 20 21 22 23 24 25 26 27 28 29 30 31 32 33 34 35 36 37 38 39 40 41 42 43 44 45 46 47 48 49 50
000
ASUS43 KGLD 260859
RWRGLD

GOODLAND FORECAST AREA HOURLY WEATHER ROUNDUP
NATIONAL WEATHER SERVICE GOODLAND KS
200 AM MST WED NOV 26 2014

...OFFICIAL OBSERVATIONS...

CITY           SKY/WX    TMP DP  RH WIND       PRES   REMARKS
GOODLAND KS    CLOUDY    33  31  92 NW20      30.11R
HILL CITY KS   CLOUDY    43  30  60 NW15G26   30.04R
IMPERIAL NEB   CLOUDY    35  23  61 NW16      30.07R
MCCOOK NEB     CLOUDY    37  30  75 NW13      30.05R
AKRON CO       LGT SNOW  28  26  92 W16       30.12R FOG     WCI  16
BURLINGTON CO  LGT SNOW  32  30  92 NW18      30.13R FOG
LIMON CO       CLOUDY    27  25  92 N15       30.13R WCI  15
$$

...UNOFFICIAL OBSERVATIONS...

CITY           SKY/WX    TMP DP  RH WIND       PRES   REMARKS
COLBY KS       CLOUDY    36  36 100 W15       30.07S
GOVE KS          N/A     38  32  79 MISG        N/A
NORTON KS      CLOUDY    39  27  60 W20G28    30.02R
SHARON SPRINGS   N/A     35  32  89 N18G25      N/A
TRIBUNE KS     PTCLDY    36  34  93 NW9       30.12R
TRENTON NEB      N/A     36  32  85 W12         N/A
YUMA CO          N/A     31  28  89 W20         N/A  WCI  19
$$



USA.gov is the U.S. government's official web portal to all federal, state and local government web resources and services.